Regional Weather Roundup
Issued by NWS

Home | Current Version | Previous Version | Graphics & Text | Print | Product List | Glossary On
Versions: 1 2 3 4 5 6 7 8 9 10 11 12 13 14 15 16 17 18 19 20 21 22 23 24 25 26 27 28 29 30 31 32 33 34 35 36 37 38 39 40 41 42 43 44 45 46 47 48 49 50
000
ASUS43 KMKX 281221
RWRWI

WISCONSIN REGIONAL WEATHER ROUNDUP
NATIONAL WEATHER SERVICE MILWAUKEE/SULLIVAN WI
700 AM CDT SUN MAY 28 2017

NOTE: "FAIR" INDICATES FEW OR NO CLOUDS BELOW 12,000 FEET WITH NO
SIGNIFICANT WEATHER AND/OR OBSTRUCTIONS TO VISIBILITY.

WIZ001-002-006>008-014>016-023>028-281300-
NORTHWEST WISCONSIN

CITY           SKY/WX    TMP DP  RH WIND       PRES   REMARKS
SUPERIOR ARPT  NOT AVBL
ASHLAND        CLOUDY    57  49  74 SE3       29.67F
6HR MIN TEMP:  57; 6HR MAX TEMP:  62;

HAYWARD        CLOUDY    56  49  77 S3        29.69F
6HR MIN TEMP:  53; 6HR MAX TEMP:  59; 6HR PCP:  0.02;

SIREN          PTSUNNY   54  52  93 CALM      29.70S
6HR MIN TEMP:  53; 6HR MAX TEMP:  61; 6HR PCP:  0.04;

CUMBERLAND     MOSUNNY   54  46  76 W6        29.71R
RICE LAKE      SUNNY     56  50  79 SE7       29.71F
6HR MIN TEMP:  54; 6HR MAX TEMP:  57;

CHETEK         SUNNY     55  51  86 SE3       29.71F
6HR MIN TEMP:  53; 6HR MAX TEMP:  55;

LADYSMITH      MOSUNNY   55  52  90 SE6       29.74F
6HR MIN TEMP:  53; 6HR MAX TEMP:  57; 6HR PCP:  0.05;

EAU CLAIRE     SUNNY     57  53  86 S5        29.72F
6HR MIN TEMP:  54; 6HR MAX TEMP:  59; 6HR PCP:  0.02;

MENOMONIE      SUNNY     57  52  83 E5        29.72F
6HR MIN TEMP:  55; 6HR MAX TEMP:  58;

NEW RICHMOND   MOSUNNY   56  48  74 SW6       29.71F
6HR MIN TEMP:  54; 6HR MAX TEMP:  59;

OSCEOLA        CLOUDY    58  51  77 W5        29.74S
6HR MIN TEMP:  54; 6HR MAX TEMP:  63;

$$

WIZ003>005-009-010-017-018-281300-
NORTH CENTRAL WISCONSIN

CITY           SKY/WX    TMP DP  RH WIND       PRES   REMARKS
MANITOWISH WTR DRIZZLE   52  52 100 S3        29.74F
6HR MIN TEMP:  52; 6HR MAX TEMP:  56; 6HR PCP:  0.02;

ARBOR VITAE    LGT RAIN  55  52  92 CALM      29.75F
6HR MIN TEMP:  55; 6HR MAX TEMP:  59;

WOODRUFF       LGT RAIN  55  52  92 CALM      29.75F
6HR MIN TEMP:  55; 6HR MAX TEMP:  59;

RHINELANDER    LGT RAIN  55  52  89 CALM      29.77F FOG
6HR MIN TEMP:  49; 6HR MAX TEMP:  56; 6HR PCP:  0.09;

EAGLE RIVER    RAIN      52  52 100 CALM      29.77R
6HR MIN TEMP:  50; 6HR MAX TEMP:  54;

LAND O LAKES   RAIN      53  51  92 S3        29.78R
6HR MIN TEMP:  51; 6HR MAX TEMP:  55;

PHILLIPS       CLOUDY    52  52 100 CALM      29.73F
6HR MIN TEMP:  51; 6HR MAX TEMP:  56; 6HR PCP:  0.05;

TOMAHAWK       CLOUDY    52  51  95 CALM      29.77F FOG
6HR MIN TEMP:  48; 6HR MAX TEMP:  53;

MEDFORD        CLOUDY    53  50  92 SE5       29.75F
6HR MIN TEMP:  51; 6HR MAX TEMP:  56; 6HR PCP:  0.01;

MERRILL        LGT RAIN  54  53  97 W3        29.78S
6HR MIN TEMP:  54; 6HR MAX TEMP:  57; 6HR PCP:  0.05;

$$

WIZ029-030-035-036-043>047-281300-
CENTRAL WISCONSIN

CITY           SKY/WX    TMP DP  RH WIND       PRES   REMARKS
WAUSAU         RAIN      54  53  97 CALM      29.77R FOG
6HR MIN TEMP:  54; 6HR MAX TEMP:  60; 6HR PCP:  0.11;

MOSINEE        LGT RAIN  54  54 100 NW5       29.79R
MARSHFIELD     LGT RAIN  55  53  93 CALM      29.76F
6HR MIN TEMP:  54; 6HR MAX TEMP:  58; 6HR PCP:  0.01;

STEVENS POINT  CLOUDY    55  55 100 W3        29.79R
6HR MIN TEMP:  54; 6HR MAX TEMP:  57;

WAUPACA        CLOUDY    59  57  93 CALM      29.77S
6HR MIN TEMP:  59; 6HR MAX TEMP:  64;

WAUTOMA        CLOUDY    57  56  96 W3        29.78
6HR MIN TEMP:  57; 6HR MAX TEMP:  62;

WISC RAPIDS    LGT RAIN  56  55  97 CALM      29.79S
6HR MIN TEMP:  56; 6HR MAX TEMP:  58; 6HR PCP:  0.08;

CAMP DOUGLAS   CLOUDY    56  56 100 E3        29.78S
6HR MIN TEMP:  55; 6HR MAX TEMP:  58; 6HR PCP:  0.05;

$$

WIZ011>013-019>022-031-037>040-048>050-281300-
NORTHEAST WISCONSIN

CITY           SKY/WX    TMP DP  RH WIND       PRES   REMARKS
ANTIGO         CLOUDY    55  54  97 W6        29.78S
6HR MIN TEMP:  54; 6HR MAX TEMP:  58; 6HR PCP:  0.06;

SHAWANO        CLOUDY    59  56  91 W3        29.76R
6HR MIN TEMP:  58; 6HR MAX TEMP:  64; 6HR PCP:  0.05;

OCONTO         CLOUDY    59  53  82 W3        29.73F
6HR MIN TEMP:  55; 6HR MAX TEMP:  59;

STURGEON BAY   CLOUDY    59  56  89 W3        29.73F
6HR MIN TEMP:  57; 6HR MAX TEMP:  62; 6HR PCP: TRACE;

GREEN BAY      LGT RAIN  59  57  93 W6        29.75R
6HR MIN TEMP:  59; 6HR MAX TEMP:  62; 6HR PCP:  0.01;

MANITOWOC      CLOUDY    62  54  74 NW6       29.73S
6HR MIN TEMP:  59; 6HR MAX TEMP:  62; 6HR PCP: TRACE;

APPLETON       LGT RAIN  57  55  94 W6        29.75S FOG
CLINTONVILLE   CLOUDY    57  54  88 W5        29.76S
OSHKOSH        LGT RAIN  58  54  86 W6        29.77R
6HR MIN TEMP:  58; 6HR MAX TEMP:  64; 6HR PCP:  0.02;

$$

WIZ032>034-041-042-053>061-281300-
SOUTHWEST WISCONSIN

CITY           SKY/WX    TMP DP  RH WIND       PRES   REMARKS
LA CROSSE      PTSUNNY   59  56  89 S7        29.76S
6HR MIN TEMP:  56; 6HR MAX TEMP:  59; 6HR PCP:  0.01;

SPARTA         CLOUDY    54  54 100 CALM      29.78S
6HR MIN TEMP:  53; 6HR MAX TEMP:  55; 6HR PCP:  0.01;

VIROQUA        CLOUDY    56  54  92 SW5       29.79S
6HR MIN TEMP:  56; 6HR MAX TEMP:  58;

BOSCOBEL       CLOUDY    61  57  87 CALM      29.79R
6HR MIN TEMP:  58; 6HR MAX TEMP:  61; 6HR PCP: TRACE;

PRAIRIE DU CHI CLOUDY    57  56  94 CALM      29.79S FOG
6HR MIN TEMP:  57; 6HR MAX TEMP:  60; 6HR PCP:  0.01;

PLATTEVILLE    CLOUDY    58  57  97 NW5       29.79R
6HR MIN TEMP:  57; 6HR MAX TEMP:  61; 6HR PCP:  0.16;

$$

WIZ056-057-062-063-064-067-068-281300-
SOUTH CENTRAL WISCONSIN

CITY           SKY/WX    TMP DP  RH WIND       PRES   REMARKS
REEDSBURG      CLOUDY    56  56 100 NW3       29.77F
6HR MIN TEMP:  56; 6HR MAX TEMP:  60;

BARABOO/DELLS  CLOUDY    56  55  94 CALM      29.77S
6HR MIN TEMP:  56; 6HR MAX TEMP:  59; 6HR PCP:  0.05;

LONE ROCK      CLOUDY    59  54  83 CALM      29.78S
6HR MIN TEMP:  58; 6HR MAX TEMP:  61; 6HR PCP:  0.02;

MINERAL POINT  CLOUDY    59  57  94 CALM      29.78R
MADISON        LGT RAIN  56  55  97 CALM      29.77R
6HR MIN TEMP:  55; 6HR MAX TEMP:  64; 6HR PCP:  0.36;

MIDDLETON      CLOUDY    58  56  95 CALM      29.78R
6HR MIN TEMP:  57; 6HR MAX TEMP:  65; 6HR PCP:  0.40;

WATERTOWN      LGT RAIN  56  56 100 NW6       29.78R
6HR MIN TEMP:  56; 6HR MAX TEMP:  62; 6HR PCP:  0.52;

MONROE         PTSUNNY   55  54  94 N7        29.77R
JANESVILLE     LGT RAIN  59  59 100 N9        29.76R
$$

WIZ051-052-058>065-066-070>072-281300-
SOUTHEAST WISCONSIN

CITY           SKY/WX    TMP DP  RH WIND       PRES   REMARKS
MILWAUKEE      CLOUDY    61  54  77 CALM      29.73S
6HR MIN TEMP:  59; 6HR MAX TEMP:  65;

WAUKESHA       RAIN      57  55  94 NW5       29.77R FOG
MILWAUKEE/TIMM   N/A     61  54  77 W5        29.76R
RACINE         CLOUDY    60  53  77 SW3       29.74S
6HR MIN TEMP:  53; 6HR MAX TEMP:  61;

KENOSHA        CLOUDY    59  55  87 CALM      29.74R
6HR MIN TEMP:  53; 6HR MAX TEMP:  61;

FOND DU LAC    LGT RAIN  58  53  84 NW6       29.76R
6HR MIN TEMP:  58; 6HR MAX TEMP:  64; 6HR PCP:  0.21;

SHEBOYGAN      CLOUDY    61  57  87 NW6       29.72F
6HR MIN TEMP:  59; 6HR MAX TEMP:  63; 6HR PCP: TRACE;

WEST BEND      RAIN      59  55  88 NW7G24    29.76R
JUNEAU         RAIN      56  55  95 NW5       29.79R
6HR MIN TEMP:  55; 6HR MAX TEMP:  63; 6HR PCP:  0.52;

$$

LSZ147-162-281300-
LAKE SUPERIOR

STATION/POSITION TIME  TEMP    WIND        PRES    WAVE
                       AIR SEA DIR/SP/G            HT/PER
                 (UTC) (F)     (DEG/KT/KT) (MB)    (FT/S)
W MID LAKE BUOY  1150   46 37  160/ 12/ 12 1005.1F   1
DEVILS ISLAND    1200   60     170/  8/ 11 1004.4F
PORT WING        1140   60     200/  7/  9 1004.7F
SAXON HARBOR     1130   60     180/  3/  7 1005.4S
$$

LMZ867-665-643>646-281300-
LAKE MICHIGAN

STATION/POSITION TIME  TEMP    WIND        PRES    WAVE
                       AIR SEA DIR/SP/G            HT/PER
                 (UTC) (F)     (DEG/KT/KT) (MB)    (FT/S)
CHAMBERS ISLAND  1130   58     200/  1/  4 1006.8R
N MID L


USA.gov is the U.S. government's official web portal to all federal, state and local government web resources and services.